Showing default

OPS 5712 (P/L 153), 2874

Orbit data source: Space-Track

OPS 5712 (P/L 153), 2874 is an American payload satellite in LEO that was launched on Wed, 31 May 1967 UTC via a THOR SLV-2 AGENA D launch vehicle from the Air Force Western Test Range (AFWTR). Payload-class satellites include a variety of spacecraft equipped with specific instruments for various scientific and technological missions. These include communications satellites like Starlink; space stations such as the ISS; scientific satellites like the Hubble; Earth observation satellites from companies like Planet Labs, Umbra, and HawkEye 360; GPS; miniature CubeSats for education and research; and military/defense satellites.

Loading next visibility...
Identifier
2874, 1967-053H
Orbit
LEO
Country
Flag of USUS
Related business
Manufacturer
NRL
Mission
Operational spacecraft
Bus & Motor
NRL MULTI, Unknown motor
Mass
77 kg wet, 77 kg dry
Launch date (UTC)
1967-05-31 (59 years ago)
Launch vehicle
THOR SLV-2 AGENA D
Launch site
Air Force Western Test Range (AFWTR)
Object type
Payload
Rocket body
Debris
Shape & HBR
Unknown
Radar Cross Section
Medium (>0.1 m² and <1 m²)

Expand to show TLE details & history
Last TLE update: 15 hours ago

TLE from 15 hours ago
0 OPS 5712 (P/L 153)
1 02874U 67053H   25347.22358696  .00000100  00000-0  11025-3 0  9997
2 02874  69.9723 153.8945 0004469  69.1237 291.0347 13.96792048980816
Epoch: 2025-12-13T05:21Z
TLE epoch observation values (Epoch: 2025-12-13T05:21:57.913Z)
Latitude
-0.00002°
Longitude
-8.75075°
Altitude
906.069 km
Speed
7.4 km/s
True Right ascension
10h 15m 34s
True Declination
0° 00' 00"
Sunlit
Object was in daylight at epoch
Visualization orbit readout
Latitude
Unknown
Longitude
Unknown
Altitude
Unknown
Speed
Unknown
Apparent Right ascension
Unknown
Apparent Declination
Unknown
Sunlit
N/A
Visualization observer readout
Local Sidereal Time
18:44:39
Azimuth
Unknown
Elevation
Unknown
Doppler factor
Unknown
Orbital elements
Apogee altitude
906.224 km
Perigee altitude
899.716 km
Semi-major axis
7,281.107 km
Eccentricity
0.00045
Inclination
69.9723°
RAAN
153.8945°
Arg. of periapsis
69.1237°
True anomaly
290.98689°
Mean anomaly
291.0347°
Eccentric anomaly
291.0108°
Mean motion
3.49339 °/min
Orbital period
103.05 mins
BSTAR
0.00011025
Loading maneuver chart data...
Computing Atmospheric mass density...
Loading historical data...
Loading historical data...
Loading historical data...
Loading historical data...
Loading historical data...
Loading historical data...
Loading historical data...

Documentation

Showing up to 5 results
|